GW1115 Weather Reports


time (UTC)temp
C
wind
direction
speed
KPH
gust
KPH
rain 1hr
cm
rain 24hr
cm
rain mn
cm
humidity
%
barometer
mb
20260510033012 13 158 6.4 11.3 0.00 0.13 0.13 80 1012.2
20260510031551 13 164 4.8 14.5 0.00 0.13 0.13 80 1012.0
20260510030025 13 158 6.4 12.9 0.00 0.13 0.13 79 1012.0
20260510024523 13 175 6.4 12.9 0.00 0.13 0.13 79 1012.0
20260510023048 13 153 4.8 11.3 0.00 0.13 0.13 79 1012.0
20260510021531 13 161 6.4 12.9 0.00 0.13 0.13 79 1011.7
20260510020056 13 154 4.8 12.9 0.00 0.13 0.13 79 1011.5
20260510014536 13 148 6.4 8.0 0.00 0.13 0.13 79 1011.3
20260510013010 13 146 4.8 11.3 0.00 0.13 0.13 78 1011.2
20260510011558 14 149 4.8 9.7 0.00 0.13 0.13 77 1011.0
20260510010026 14 157 4.8 11.3 0.00 0.13 0.13 75 1010.9
20260510004602 15 157 4.8 9.7 0.00 0.13 0.13 73 1010.7
20260510004503 15 157 3.2 9.7 0.00 0.13 0.13 73 1010.7
20260510003058 15 182 4.8 9.7 0.00 0.13 0.13 71 1010.5
20260510001519 16 162 8.0 14.5 0.00 0.13 0.13 70 1010.3
20260510000055 16 173 9.7 17.7 0.00 0.13 0.13 68 1010.2
20260509234538 17 196 8.0 12.9 0.00 0.13 0.13 67 1010.1
20260509233012 17 200 11.3 19.3 0.00 0.13 0.13 66 1009.9
20260509231553 17 192 9.7 24.1 0.00 0.13 0.13 65 1010.1
20260509230031 17 150 12.9 24.1 0.00 0.13 0.13 65 1010.2
20260509224507 17 154 14.5 22.5 0.00 0.13 0.13 65 1010.3
20260509223039 17 170 9.7 17.7 0.00 0.13 0.13 64 1010.4
20260509221519 17 207 14.5 27.4 0.00 0.13 0.13 64 1010.3
20260509220047 17 175 12.9 20.9 0.00 0.13 0.13 65 1010.5
20260509214529 17 213 14.5 24.1 0.00 0.13 0.13 64 1010.5
20260509213003 17 179 17.7 25.7 0.00 0.13 0.13 67 1010.4
20260509211541 17 169 12.9 27.4 0.00 0.13 0.13 66 1010.3
20260509210021 17 201 9.7 19.3 0.00 0.13 0.13 68 1010.3
20260509204554 17 170 12.9 24.1 0.00 0.13 0.13 67 1010.5
20260509203033 16 223 4.8 16.1 0.00 0.13 0.13 67 1010.5
20260509201557 17 199 12.9 24.1 0.00 0.13 0.13 67 1010.6
20260509201502 17 206 14.5 24.1 0.00 0.13 0.13 66 1010.6
20260509200032 17 162 6.4 20.9 0.00 0.13 0.13 68 1010.8
20260509194513 17 184 9.7 20.9 0.00 0.13 0.13 67 1010.8
20260509193042 17 209 9.7 22.5 0.00 0.13 0.13 71 1010.8
20260509191523 16 188 8.0 20.9 0.00 0.13 0.13 73 1010.9
20260509190051 15 191 4.8 14.5 0.00 0.13 0.13 74 1010.9
20260509184535 15 189 8.0 12.9 0.00 0.13 0.13 74 1011.0
20260509183018 15 209 6.4 12.9 0.00 0.13 0.13 75 1010.8
20260509181557 14 200 3.2 9.7 0.00 0.13 0.13 78 1011.0
20260509180022 13 200 6.4 11.3 0.00 0.13 0.13 79 1011.0
20260509174507 13 184 3.2 8.0 0.00 0.13 0.13 80 1011.0
20260509173036 13 200 4.8 8.0 0.00 0.13 0.13 81 1011.1
20260509171514 13 199 4.8 8.0 0.00 0.13 0.13 81 1011.3
20260509170043 13 181 1.6 6.4 0.00 0.13 0.13 83 1011.2
20260509164522 13 171 6.4 9.7 0.00 0.13 0.13 83 1011.1
20260509163051 13 155 6.4 11.3 0.00 0.13 0.13 85 1011.0
20260509161533 12 174 3.2 8.0 0.00 0.13 0.13 86 1011.4
20260509160100 12 175 4.8 8.0 0.00 0.13 0.13 86 1011.5
20260509160000 12 175 4.8 8.0 0.00 0.13 0.13 86 1011.6
20260509154538 12 158 4.8 9.7 0.00 0.13 0.13 87 1011.6
20260509153012 11 169 4.8 9.7 0.00 0.13 0.13 88 1011.8
20260509151554 11 161 3.2 8.0 0.00 0.13 0.13 89 1012.0
20260509150024 11 161 4.8 9.7 0.00 0.13 0.13 89 1011.9
20260509144558 11 148 1.6 9.7 0.00 0.13 0.13 91 1011.8
20260509144506 11 148 1.6 9.7 0.00 0.13 0.13 91 1011.8
20260509143037 11 147 4.8 8.0 0.00 0.13 0.13 91 1011.7
20260509141514 11 165 6.4 11.3 0.00 0.13 0.13 90 1011.8
20260509140054 11 145 1.6 8.0 0.00 0.13 0.13 92 1011.9
20260509134533 10 148 3.2 9.7 0.00 0.13 0.13 93 1012.0
20260509133006 10 149 6.4 9.7 0.03 0.13 0.13 94 1011.9
20260509131545 10 165 0.0 3.2 0.03 0.13 0.13 96 1012.0
20260509130023 10 165 0.0 3.2 0.03 0.13 0.13 96 1012.1
20260509124608 10 165 0.0 3.2 0.05 0.13 0.13 96 1012.3
20260509124502 10 165 0.0 3.2 0.05 0.13 0.13 96 1012.3
20260509123038 10 165 4.8 8.0 0.03 0.10 0.10 96 1012.4
20260509121525 10 165 0.0 4.8 0.03 0.10 0.10 96 1012.5
20260509120052 10 142 0.0 4.8 0.03 0.10 0.10 95 1012.6
20260509114532 10 139 0.0 4.8 0.03 0.08 0.08 95 1012.5
20260509113004 9 139 0.0 1.6 0.03 0.08 0.08 95 1012.3
20260509111540 9 139 3.2 6.4 0.03 0.08 0.08 95 1012.3
20260509110020 9 128 3.2 6.4 0.03 0.08 0.08 95 1012.3
20260509104555 9 81 3.2 6.4 0.03 0.05 0.05 94 1012.2
20260509103032 9 30 1.6 3.2 0.05 0.05 0.05 93 1012.2
20260509101515 9 32 0.0 6.4 0.05 0.05 0.05 92 1012.1
20260509100046 10 11 0.0 3.2 0.05 0.05 0.05 91 1012.4
20260509094525 10 9 0.0 4.8 0.03 0.03 0.03 89 1012.5
20260509093059 10 259 0.0 4.8 0.00 0.00 0.00 88 1012.8
20260509091537 10 257 1.6 6.4 0.00 0.00 0.00 86 1012.9
20260509090105 11 261 3.2 9.7 0.00 0.00 0.00 84 1012.8
20260509090006 11 259 3.2 9.7 0.00 0.00 0.00 83 1012.8
20260509084549 11 239 6.4 30.6 0.00 0.00 0.00 79 1012.9
20260509083018 11 213 16.1 25.7 0.00 0.00 0.00 75 1013.0
20260509081554 11 203 3.2 12.9 0.00 0.00 0.00 77 1012.6
20260509080031 11 134 6.4 12.9 0.00 0.00 0.00 78 1012.3
20260509074600 11 157 11.3 16.1 0.00 0.00 0.00 78 1012.0
20260509074503 11 139 9.7 19.3 0.00 0.00 0.00 77 1012.1
20260509073039 11 160 14.5 27.4 0.00 0.00 0.00 74 1012.0
20260509071513 11 161 16.1 29.0 0.00 0.00 0.00 76 1012.0
20260509070044 10 171 3.2 9.7 0.00 0.00 0.00 83 1011.9
20260509064525 10 148 1.6 3.2 0.00 0.00 0.00 84 1011.8
20260509063047 10 148 0.0 3.2 0.00 0.00 0.00 85 1011.9
20260509061528 10 148 0.0 3.2 0.00 0.00 0.00 84 1012.1
20260509060056 10 148 1.6 8.0 0.00 0.00 0.00 81 1012.1
20260509054538 10 150 4.8 9.7 0.00 0.00 0.00 79 1012.3
20260509053107 10 153 0.0 3.2 0.00 0.00 0.00 83 1012.5
20260509053011 10 153 0.0 3.2 0.00 0.00 0.00 83 1012.5
20260509051547 10 153 0.0 3.2 0.00 0.00 0.00 83 1012.6
20260509050018 10 153 0.0 3.2 0.00 0.00 0.00 83 1012.8
20260509044558 10 153 0.0 3.2 0.00 0.00 0.00 83 1012.8
20260509043033 11 153 1.6 3.2 0.00 0.00 0.00 82 1013.0
20260509041512 11 153 0.0 0.0 0.00 0.00 0.00 82 1013.2
20260509040043 11 153 0.0 0.0 0.00 0.00 0.00 80 1013.2
20260509034528 11 153 0.0 0.0 0.00 0.00 0.00 81 1013.2